Date String (YYYY-MM-DD hh:mm:ss) UTC,Instrument flags,absolute air pressure of the measurement (hPa),sample flow rate (lpm),inlet stack bypass flow (lpm),air temperature of the measurement (°C),ambient temperature measured by the external sensor (°C),aerosol sample conditioner tube jacket temperature (°C),OPC LED temperature (°C),internal box temperature (°C),relative humidity of the measurement (%),span deviation,mass concentration of particles derived from Lorenz-Mie calculation of OPC scattering (μg/m³),mass concentration of particles derived from Lorenz-Mie calculation of OPC scattering (μg/m³),mass concentration of particles derived from Lorenz-Mie calculation of OPC scattering (μg/m³)
DateTimeUTC,F1_M11,P_M11,Q1_M11,Q2_M11,T1_M11,T2_M11,T3_M11,T4_M11,T5_M11,U1_M11,ZSPAN_M11,X0_M11,X2_M11,X1_M11
2024-06-03 11:00:00,SystemResetWarning,0824.7,5.00,000.00,031.0,030.2,000.0,039.6,032.7,015.3,0000.0,0014.87,0005.35,0003.99
2024-06-03 11:01:00,SystemResetWarning,0824.6,5.00,000.00,031.0,030.2,000.0,039.6,032.7,015.3,0000.0,0014.77,0005.40,0003.99
2024-06-03 11:02:00,SystemResetWarning,0824.5,4.99,000.00,031.0,030.2,000.0,039.6,032.8,015.3,0000.0,0015.29,0005.46,0003.99
2024-06-03 11:03:00,SystemResetWarning,0824.5,4.99,000.00,031.1,030.3,000.0,039.6,032.8,015.2,0000.0,0015.64,0005.48,0004.00
2024-06-03 11:04:00,SystemResetWarning,0824.5,5.00,000.00,031.1,030.3,000.0,039.5,032.8,015.2,0000.0,0015.71,0005.50,0004.00
2024-06-03 11:05:00,SystemResetWarning,0824.5,5.00,000.00,031.1,030.3,000.0,039.5,032.8,015.2,0000.0,0016.33,0005.47,0004.00
2024-06-03 11:06:00,SystemResetWarning,0824.6,5.00,000.00,031.1,030.3,000.0,039.5,032.8,015.2,0000.0,0017.32,0005.43,0004.00
2024-06-03 11:07:00,SystemResetWarning,0824.7,5.00,000.00,031.1,030.3,000.0,039.5,032.8,015.1,0000.0,0017.29,0005.41,0004.00
2024-06-03 11:08:00,SystemResetWarning,0824.7,5.00,000.00,031.1,030.3,000.0,039.5,032.8,015.1,0000.0,0018.02,0005.40,0004.00
2024-06-03 11:09:00,SystemResetWarning,0824.7,5.00,000.00,031.1,030.3,000.0,039.5,032.8,015.2,0000.0,0018.33,0005.40,0003.99
2024-06-03 11:10:00,SystemResetWarning,0824.6,5.00,000.00,031.1,030.3,000.0,039.5,032.8,015.2,0000.0,0018.85,0005.44,0003.99
2024-06-03 11:11:00,SystemResetWarning,0824.6,5.00,000.00,031.1,030.3,000.0,039.5,032.8,015.2,0000.0,0018.85,0005.50,0003.99
2024-06-03 11:12:00,SystemResetWarning,0824.5,5.00,000.00,031.1,030.3,000.0,039.5,032.7,015.3,0000.0,0018.70,0005.52,0004.00
2024-06-03 11:13:00,SystemResetWarning,0824.5,5.01,000.00,031.1,030.3,000.0,039.5,032.8,015.4,0000.0,0018.49,0005.56,0004.00
2024-06-03 11:14:00,SystemResetWarning,0824.6,5.00,000.00,031.1,030.3,000.0,039.5,032.8,015.4,0000.0,0018.80,0005.54,0004.00
2024-06-03 11:15:00,SystemResetWarning,0824.7,5.00,000.00,031.1,030.3,000.0,039.5,032.8,015.4,0000.0,0020.38,0005.49,0004.00
2024-06-03 11:16:00,SystemResetWarning,0824.7,4.99,000.00,031.1,030.3,000.0,039.5,032.8,015.5,0000.0,0021.43,0005.52,0004.02
2024-06-03 11:17:00,SystemResetWarning,0824.7,5.00,000.00,031.1,030.3,000.0,039.5,032.7,015.5,0000.0,0019.47,0005.60,0004.03
2024-06-03 11:18:00,SystemResetWarning,0824.7,5.01,000.00,031.1,030.3,000.0,039.5,032.7,015.5,0000.0,0019.18,0005.64,0004.04
2024-06-03 11:19:00,SystemResetWarning,0824.7,5.01,000.00,031.1,030.3,000.0,039.5,032.7,015.4,0000.0,0018.76,0005.64,0004.05
2024-06-03 11:20:00,SystemResetWarning,0824.7,5.00,000.00,031.1,030.3,000.0,039.5,032.8,015.4,0000.0,0019.51,0005.68,0004.06
2024-06-03 11:21:00,SystemResetWarning,0824.7,5.00,000.00,031.1,030.3,000.0,039.5,032.8,015.5,0000.0,0019.13,0005.70,0004.07
2024-06-03 11:22:00,SystemResetWarning,0824.7,5.00,000.00,031.1,030.3,000.0,039.5,032.8,015.4,0000.0,0018.81,0005.74,0004.09
2024-06-03 11:23:00,SystemResetWarning,0824.7,4.99,000.00,031.1,030.3,000.0,039.5,032.8,015.5,0000.0,0019.03,0005.81,0004.09
2024-06-03 11:24:00,SystemResetWarning,0824.7,4.99,000.00,031.1,030.3,000.0,039.5,032.8,015.5,0000.0,0018.66,0005.77,0004.09
2024-06-03 11:25:00,SystemResetWarning,0824.7,4.99,000.00,031.1,030.3,000.0,039.5,032.8,015.5,0000.0,0018.56,0005.76,0004.09
2024-06-03 11:26:00,SystemResetWarning,0824.7,5.00,000.00,031.1,030.3,000.0,039.5,032.8,015.5,0000.0,0018.21,0005.78,0004.09
2024-06-03 11:27:00,SystemResetWarning,0824.7,5.02,000.00,031.1,030.3,000.0,039.5,032.8,015.5,0000.0,0017.28,0005.77,0004.09
2024-06-03 11:28:00,SystemResetWarning,0824.7,5.01,000.00,031.1,030.3,000.0,039.5,032.8,015.6,0000.0,0018.64,0005.76,0004.10
2024-06-03 11:29:00,SystemResetWarning,0824.7,4.99,000.00,031.1,030.3,000.0,039.5,032.8,015.6,0000.0,0020.08,0005.77,0004.09
2024-06-03 11:30:00,SystemResetWarning,0824.7,4.99,000.00,031.1,030.3,000.0,039.5,032.8,015.7,0000.0,0020.84,0005.81,0004.09
2024-06-03 11:31:00,SystemResetWarning,0824.7,5.01,000.00,031.1,030.3,000.0,039.5,032.8,015.6,0000.0,0020.54,0005.83,0004.10
2024-06-03 11:32:00,SystemResetWarning,0824.7,5.01,000.00,031.1,030.3,000.0,039.5,032.8,015.7,0000.0,0020.54,0005.82,0004.11
2024-06-03 11:33:00,SystemResetWarning,0824.7,5.00,000.00,031.1,030.3,000.0,039.5,032.8,016.1,0000.0,0019.82,0005.81,0004.11
2024-06-03 11:34:00,SystemResetWarning,0824.7,4.99,000.00,031.1,030.3,000.0,039.5,032.8,016.4,0000.0,0019.39,0005.75,0004.12
2024-06-03 11:35:00,SystemResetWarning,0824.7,4.99,000.00,031.1,030.3,000.0,039.6,032.8,016.5,0000.0,0019.80,0005.74,0004.13
2024-06-03 11:36:00,SystemResetWarning,0824.7,5.00,000.00,031.1,030.2,000.0,039.5,032.8,016.4,0000.0,0020.61,0005.83,0004.15
2024-06-03 11:37:00,SystemResetWarning,0824.7,5.01,000.00,031.0,030.2,000.0,039.6,032.7,016.4,0000.0,0019.41,0005.87,0004.17
2024-06-03 11:38:00,SystemResetWarning,0824.7,5.01,000.00,031.0,030.2,000.0,039.6,032.7,016.5,0000.0,0019.58,0005.92,0004.18
2024-06-03 11:39:00,SystemResetWarning,0824.7,5.00,000.00,031.0,030.1,000.0,039.5,032.7,016.5,0000.0,0019.73,0005.97,0004.18
2024-06-03 11:40:00,SystemResetWarning,0824.7,5.00,000.00,031.0,030.1,000.0,039.5,032.7,016.5,0000.0,0018.63,0005.99,0004.20
2024-06-03 11:41:00,SystemResetWarning,0824.7,5.00,000.00,031.0,030.1,000.0,039.5,032.7,016.5,0000.0,0018.86,0006.04,0004.22
2024-06-03 11:42:00,SystemResetWarning,0824.7,5.00,000.00,031.0,030.0,000.0,039.5,032.6,016.5,0000.0,0018.61,0006.01,0004.23
2024-06-03 11:43:00,SystemResetWarning,0824.7,5.00,000.00,030.9,030.0,000.0,039.5,032.6,016.6,0000.0,0018.71,0005.97,0004.23
2024-06-03 11:44:00,SystemResetWarning,0824.7,4.99,000.00,030.9,030.0,000.0,039.5,032.6,016.6,0000.0,0019.06,0005.96,0004.23
2024-06-03 11:45:00,SystemResetWarning,0824.7,5.00,000.00,030.9,030.0,000.0,039.5,032.6,016.5,0000.0,0021.05,0006.00,0004.23
2024-06-03 11:46:00,SystemResetWarning,0824.7,5.00,000.00,030.9,030.0,000.0,039.5,032.6,016.5,0000.0,0021.32,0006.09,0004.23
2024-06-03 11:47:00,SystemResetWarning,0824.7,5.00,000.00,030.9,030.0,000.0,039.5,032.6,016.4,0000.0,0021.63,0006.15,0004.24
2024-06-03 11:48:00,SystemResetWarning,0824.7,5.01,000.00,030.9,030.0,000.0,039.5,032.6,016.4,0000.0,0022.22,0006.14,0004.23
2024-06-03 11:49:00,SystemResetWarning,0824.8,5.00,000.00,030.9,030.0,000.0,039.5,032.6,016.4,0000.0,0021.63,0006.18,0004.25
2024-06-03 11:50:00,SystemResetWarning,0824.8,4.99,000.00,030.9,030.0,000.0,039.5,032.6,016.4,0000.0,0021.04,0006.21,0004.25
2024-06-03 11:51:00,SystemResetWarning,0824.8,4.99,000.00,030.9,030.1,000.0,039.5,032.6,016.3,0000.0,0021.64,0006.25,0004.25
2024-06-03 11:52:00,SystemResetWarning,0824.7,5.01,000.00,030.9,030.1,000.0,039.5,032.6,016.2,0000.0,0022.37,0006.23,0004.23
2024-06-03 11:53:00,SystemResetWarning,0824.7,5.01,000.00,030.9,030.0,000.0,039.5,032.6,016.3,0000.0,0023.53,0006.29,0004.23
2024-06-03 11:54:00,SystemResetWarning,0824.7,5.00,000.00,030.9,030.1,000.0,039.5,032.6,016.2,0000.0,0024.65,0006.36,0004.22
2024-06-03 11:55:00,SystemResetWarning,0824.7,5.00,000.00,030.9,030.1,000.0,039.5,032.6,016.4,0000.0,0027.00,0006.40,0004.22
2024-06-03 11:56:00,SystemResetWarning,0824.7,4.99,000.00,030.9,030.0,000.0,039.5,032.6,016.6,0000.0,0027.66,0006.44,0004.22
2024-06-03 11:57:00,SystemResetWarning,0824.7,4.99,000.00,030.9,030.0,000.0,039.5,032.6,016.6,0000.0,0028.35,0006.38,0004.22
2024-06-03 11:58:00,SystemResetWarning,0824.7,5.00,000.00,030.9,030.0,000.0,039.5,032.6,016.5,0000.0,0027.37,0006.32,0004.22
2024-06-03 11:59:00,SystemResetWarning,0824.7,5.01,000.00,030.9,030.0,000.0,039.5,032.6,016.3,0000.0,0026.92,0006.30,0004.23
